Regional Weather Roundup
Issued by NWS

Home | Current Version | Previous Version | Graphics & Text | Print | Product List | Glossary On
Versions: 1 2 3 4 5 6 7 8 9 10 11 12 13 14 15 16 17 18 19 20 21 22 23 24 25 26 27 28 29 30 31 32 33 34 35 36 37 38 39 40 41 42 43 44 45 46 47 48 49 50
000
ASUS43 KMKX 011011
RWRWI

WISCONSIN REGIONAL WEATHER ROUNDUP
NATIONAL WEATHER SERVICE MILWAUKEE/SULLIVAN WI
500 AM CDT TUE SEP 01 2015

NOTE: "FAIR" INDICATES FEW OR NO CLOUDS BELOW 12,000 FEET WITH NO
SIGNIFICANT WEATHER AND/OR OBSTRUCTIONS TO VISIBILITY.

WIZ001-002-006>008-014>016-023>028-011100-
NORTHWEST WISCONSIN

CITY           SKY/WX    TMP DP  RH WIND       PRES   REMARKS
SUPERIOR ARPT  CLOUDY    70  69  96 W3        29.87S
ASHLAND        PTCLDY    71  71 100 SW5       29.90S FOG
HAYWARD        PTCLDY    69  68  96 CALM      29.94R FOG
SIREN          MOCLDY    70  69  95 S5        29.91S FOG
CUMBERLAND     FOG       64  64 100 CALM      29.95R VSB<1/4
RICE LAKE      FOG       67  66  96 CALM      29.95S VSB<1/4
CHETEK         FOG      N/A N/A N/A MISG      29.95R VSB 1/4
LADYSMITH      FOG       68  67  96 CALM      29.98R VSB 1
EAU CLAIRE     CLEAR     69  68  96 S5        29.93F FOG
MENOMONIE      FOG       66  66  99 E3        29.93F VSB<1/4
NEW RICHMOND   PTCLDY    69  68  98 S5        29.93S FOG
OSCEOLA        MOCLDY    69  69 100 S3        29.94S FOG
$$

WIZ003>005-009-010-017-018-011100-
NORTH CENTRAL WISCONSIN

CITY           SKY/WX    TMP DP  RH WIND       PRES   REMARKS
MANITOWISH WTR CLOUDY    70  70 100 SW7       29.97S FOG
ARBOR VITAE    MOCLDY    67  66  96 S3        29.98S FOG
WOODRUFF       MOCLDY    67  66  96 S3        29.98S FOG
RHINELANDER    CLEAR     68  67  96 SW5       30.00S FOG
EAGLE RIVER    CLEAR     67  67 100 CALM      29.99S FOG
LAND O LAKES   CLOUDY    68  68 100 CALM      30.00S FOG
PHILLIPS       MOCLDY    67  67 100 CALM      29.97S FOG
TOMAHAWK       MOCLDY    65  64  97 CALM      29.99S FOG
MEDFORD        CLEAR     66  66 100 S5        29.99R FOG
MERRILL          N/A     60  60 100 CALM      29.99S FOG
$$

WIZ029-030-035-036-043>047-011100-
CENTRAL WISCONSIN

CITY           SKY/WX    TMP DP  RH WIND       PRES   REMARKS
WAUSAU         MOCLDY    66  65  96 SE6       29.97F FOG
MOSINEE        LGT RAIN  66  66 100 SE6       29.99F
MARSHFIELD     FOG       65  62  90 S6        29.98S VSB 1/2
STEVENS POINT  PTCLDY    64  63  97 CALM      29.99S
WAUPACA        CLEAR     64  64  97 CALM      29.99S FOG
WAUTOMA        LGT RAIN  62  62 100 CALM      29.99S FOG
WISC RAPIDS    MOCLDY    67  64  90 CALM      29.99S FOG
CAMP DOUGLAS   CLEAR     71  71 100 S6        29.97S
$$

WIZ011>013-019>022-031-037>040-048>050-011100-
NORTHEAST WISCONSIN

CITY           SKY/WX    TMP DP  RH WIND       PRES   REMARKS
ANTIGO         MOCLDY    67  66  98 SW7       30.01S FOG
SHAWANO        FOG       67  66  96 CALM      29.99S VSB 1
OCONTO         PTCLDY    61  61 100 CALM      29.98F
STURGEON BAY   CLEAR     66  63  88 S3        30.02S
GREEN BAY      CLEAR     66  65  96 S6        29.99F FOG
MANITOWOC      CLEAR     55  54  96 MISG      30.01F FOG
APPLETON       FOG       64  64 100 CALM      29.99S VSB 1/2
CLINTONVILLE   FOG       61  61 100 CALM      29.99S VSB<1/4
OSHKOSH        CLEAR     68  66  93 S8        29.99S FOG
$$

WIZ032>034-041-042-053>061-011100-
SOUTHWEST WISCONSIN

CITY           SKY/WX    TMP DP  RH WIND       PRES   REMARKS
LA CROSSE      CLEAR     71  69  93 SE6       29.95R FOG
SPARTA         CLEAR     63  62  95 CALM      29.98R
VIROQUA          N/A     69  69 100 S3        30.00R
BOSCOBEL       FOG       66  65  96 CALM      29.98R VSB 1/4
PRAIRIE DU CHI   N/A     69  67  94 CALM      29.97R FOG
PLATTEVILLE    CLEAR     70  70  99 S5        30.00S
$$

WIZ056-057-062-063-064-067-068-011100-
SOUTH CENTRAL WISCONSIN

CITY           SKY/WX    TMP DP  RH WIND       PRES   REMARKS
REEDSBURG      PTCLDY    71  69  94 SW3       29.98R
BARABOO/DELLS  CLEAR     70  67  89 S8        29.98S
LONE ROCK      CLEAR     67  65  93 N3        29.99R FOG
MINERAL POINT  CLEAR     70  68  94 S6        30.01R FOG
MADISON        CLEAR     70  67  90 CALM      29.99S FOG
MIDDLETON      CLEAR     73  71  93 S8        30.00S
WATERTOWN      CLEAR     67  67 100 CALM      30.00F FOG
MONROE         CLEAR     70  68  94 S9        30.01R FOG
JANESVILLE     PTCLDY    68  68 100 CALM      30.01R FOG
$$

WIZ051-052-058>065-066-070>072-011100-
SOUTHEAST WISCONSIN

CITY           SKY/WX    TMP DP  RH WIND       PRES   REMARKS
MILWAUKEE      CLEAR     69  66  90 S3        30.02S FOG
WAUKESHA       CLEAR     64  64 100 CALM      30.03S FOG
MILWAUKEE/TIMM CLEAR     64  63  94 CALM      30.02F FOG
RACINE         CLEAR     70  66  87 S6        30.04S FOG
BURLINGTON     PTCLDY    59  58  99 CALM      30.02F FOG
KENOSHA        CLEAR     68  66  93 SW6       30.03S
FOND DU LAC    CLEAR     69  67  93 S7        30.00S
SHEBOYGAN      CLEAR     61  61 100 CALM      30.01S FOG
WEST BEND      PTCLDY    63  61  94 CALM      30.02S FOG
JUNEAU           N/A     65  65  99 SE3       30.02S FOG
$$

LSZ147-162-011100-
LAKE SUPERIOR

STATION/POSITION TIME  TEMP    WIND        PRES    WAVE
                       AIR SEA DIR/SP/G            HT/PER
                 (UTC) (F)     (DEG/KT/KT) (MB)    (FT/S)
W MID LAKE BUOY  0950   60 54  200/ 10/ 10 1011.4S   1/ 3
DEVILS ISLAND    1000   72     210/  6/  7 1011.4S
PORT WING        0940   74     200/  5/ 10 1011.9R
SAXON HARBOR     0940   74     190/  3/  8 1012.2R
$$

LMZ867-665-643>646-011100-
LAKE MICHIGAN

STATION/POSITION TIME  TEMP    WIND        PRES    WAVE
                       AIR SEA DIR/SP/G            HT/PER
                 (UTC) (F)     (DEG/KT/KT) (MB)    (FT/S)
CHAMBERS ISLAND  0900   67     180/  5/  8 1015.6S
S GREEN BAY BUOY 1000   66 64  180/  4/  6 1016.7F
N MID LAKE BUOY  0950   64 65  200/ 14/ 16 1015.4F   2/ 4
NORTHPORT PIER   0900   65     170/  4/  7 1015.6S
KEWAUNEE LAKESHO 0900   49     170/  5/  5 1015.1F
SHEBOYGAN LAKESH 1000   56     160/ 10/ 11 1016.4F
PORT WASHINGTON  0940   56        CALM     1016.9S
ATWATER BUOY     1000   57 50  160/  4/  6 1017.7F
MILWAUKEE LAKESH 0910   59     240/  1/  1   N/A
S MID LAKE BUOY  0950   71 69  170/  8/  8 1016.6F   0
KENOSHA   LAKESH 1000   66     200/  4/  7 1016.6S
$$

TC  - TEMPERATURE IN CELSIUS
VSB - VISIBILITY IN STATUTE MILES
WCI - WIND CHILL INDEX
HX  - HEAT INDEX




USA.gov is the U.S. government's official web portal to all federal, state and local government web resources and services.